Weather History for Coffeyville, KS

Change the Weather History Date:

Saturday, February 2, 2013

  Actual Average Record
Temperature  
Mean Temperature 42 °F -  
Max Temperature 59 °F 44 °F 71 °F (2006)
Min Temperature 24 °F 25 °F 0 °F (2011)
Degree Days  
Heating Degree Days 24    
Moisture  
Dew Point 26 °F    
Average Humidity 60    
Maximum Humidity 85    
Minimum Humidity 33    
Precipitation  
Precipitation 0.00 in - - ()
Sea Level Pressure  
Sea Level Pressure 30.23 in    
Wind  
Wind Speed 3 mph (West)    
Max Wind Speed 13 mph    
Max Gust Speed -    
Visibility 10 miles    
Events      
Averages and records for this station are not official NWS values.
T = Trace of Precipitation, MM = Missing Value Source: NWS Daily Summary

Daily Weather History Graph

Daily Weather History Graph

Search for Another Location

Airport:

Trip Planner

Search our weather history database for the weather conditions in past years. The results will help you decide how hot, cold, wet, or windy it might be!

Date:

Astronomy

Feb. 02, 2013 Rise Set
Actual Time 7:23 AM CST 5:48 PM CST
Civil Twilight 6:56 AM CST 6:15 PM CST
Nautical Twilight 6:25 AM CST 6:47 PM CST
Astronomical Twilight 5:55 AM CST 7:17 PM CST
Moon No Moon Rise 10:45 AM CST (2/2)
Length of Visible Light 11h 19m
Length of Day
10h 24m
Waning Gibbous, 59% of the Moon is Illuminated
Feb 2
Waning Gibbous
Feb 3
Last Quarter
Feb 10
New
Feb 17
First Quarter
Feb 25
Full

Hourly Weather History & Observations

Time (CST) Temp. Windchill Dew Point Humidity Pressure Visibility Wind Dir Wind Speed Gust Speed Precip Events Conditions
12:52 AM 25.0 °F - 21.0 °F 85% 30.22 in 10.0 mi Calm Calm - N/A   Clear
1:52 AM 24.1 °F - 19.9 °F 84% 30.20 in 10.0 mi Calm Calm - N/A   Clear
2:52 AM 25.0 °F - 19.9 °F 81% 30.20 in 10.0 mi Calm Calm - N/A   Clear
3:52 AM 25.0 °F - 19.0 °F 78% 30.19 in 10.0 mi Calm Calm - N/A   Mostly Cloudy
4:52 AM 26.1 °F 21.9 °F 21.0 °F 81% 30.19 in 10.0 mi South 3.5 mph - N/A   Overcast
5:52 AM 28.0 °F - 21.9 °F 78% 30.20 in 10.0 mi Calm Calm - N/A   Overcast
6:52 AM 28.0 °F - 21.9 °F 78% 30.22 in 10.0 mi Calm Calm - N/A   Mostly Cloudy
7:52 AM 27.0 °F - 23.0 °F 85% 30.23 in 10.0 mi Calm Calm - N/A   Scattered Clouds
8:52 AM 30.9 °F - 23.0 °F 72% 30.27 in 10.0 mi Calm Calm - N/A   Clear
9:52 AM 37.9 °F - 23.0 °F 55% 30.28 in 10.0 mi Calm Calm - N/A   Clear
10:52 AM 41.0 °F 39.0 °F 26.1 °F 55% 30.29 in 10.0 mi NW 3.5 mph - N/A   Clear
11:52 AM 45.0 °F - 28.9 °F 53% 30.29 in 10.0 mi Calm Calm - N/A   Clear
12:52 PM 51.1 °F - 30.9 °F 46% 30.26 in 10.0 mi SW 5.8 mph - N/A   Clear
2:52 PM 57.9 °F - 32.0 °F 37% 30.21 in 10.0 mi WNW 10.4 mph - N/A   Clear
3:52 PM 59.0 °F - 30.0 °F 33% 30.21 in 10.0 mi WNW 12.7 mph - N/A   Clear
4:52 PM 57.0 °F - 30.9 °F 37% 30.22 in 10.0 mi WNW 11.5 mph - N/A   Clear
5:52 PM 52.0 °F - 30.0 °F 43% 30.22 in 10.0 mi West 5.8 mph - N/A   Clear
6:52 PM 48.0 °F - 28.9 °F 48% 30.22 in 10.0 mi West 3.5 mph - N/A   Clear
7:52 PM 46.0 °F 42.5 °F 28.0 °F 50% 30.23 in 10.0 mi WSW 6.9 mph - N/A   Clear
8:52 PM 46.0 °F 41.4 °F 28.9 °F 51% 30.23 in 10.0 mi West 9.2 mph - N/A   Clear
9:52 PM 46.9 °F - 28.0 °F 48% 30.22 in 10.0 mi West 9.2 mph - N/A   Clear
10:52 PM 46.0 °F 41.0 °F 28.0 °F 50% 30.21 in 10.0 mi WSW 10.4 mph - N/A   Clear
11:52 PM 46.0 °F 41.4 °F 27.0 °F 47% 30.21 in 10.0 mi West 9.2 mph - N/A   Clear